Location: Ravensburg
(47.7866°N, 9.6124°E)
Time: 19:47:50
(UTC+01:00)

DX 1 - Visible Passes

Search period start: 07 March 2026 00:00
Search period end: 17 March 2026 00:00
Orbit: 595 x 603 km, 98.4° (Epoch: 7 March)

Date Brightness Start Highest point End Pass type
(mag) Time Alt. Az. Time Alt. Az. Time Alt. Az.
7 Mar ? 03:14:42 10° NNE 03:15:23 14° NNE 03:15:23 14° NNE visible
7 Mar ? 04:51:52 10° NNW 04:52:07 11° NNW 04:52:07 11° NNW visible
8 Mar ? 03:25:31 10° NNE 03:26:27 16° NNE 03:26:27 16° NNE visible
9 Mar ? 03:36:21 10° N 03:37:30 18° N 03:37:30 18° N visible
10 Mar ? 03:47:12 10° N 03:48:34 20° N 03:48:34 20° N visible
11 Mar ? 03:58:06 10° N 03:59:37 20° N 03:59:37 20° N visible
12 Mar ? 02:33:30 10° NE 02:33:56 12° NE 02:33:56 12° NE visible
12 Mar ? 04:09:01 10° N 04:10:40 20° NNW 04:10:40 20° NNW visible
13 Mar ? 02:44:06 10° NNE 02:44:58 15° NE 02:44:58 15° NE visible
13 Mar ? 04:19:58 10° N 04:21:43 19° NNW 04:21:43 19° NNW visible
14 Mar ? 02:54:45 10° NNE 02:56:01 18° NNE 02:56:01 18° NNE visible
14 Mar ? 04:31:00 10° NNW 04:32:45 18° NW 04:32:45 18° NW visible
15 Mar ? 03:05:27 10° NNE 03:07:03 22° NNE 03:07:03 22° NNE visible
15 Mar ? 04:42:04 10° NNW 04:43:48 16° NW 04:43:48 16° NW visible
16 Mar ? 03:16:10 10° NNE 03:18:05 26° NNE 03:18:05 26° NNE visible
16 Mar ? 04:53:17 10° NNW 04:54:49 14° NW 04:54:49 14° NW visible
